This demonstration page uses our WeatherBlox Daily Observations layout. Learn more.

Left ArrowRight Arrow

38.20091, -84.87328

Hourly Observations for February 22, 2022

Temp ( °F °C ) Dew Point ( °F °C ) Humidity (%) Winds ( mph kmh ) Pressure ( in mb ) Visibility ( mi km ) Precip ( " mm )
12:53 am 00:53 Cloudy with Light Rain 55 12.8 50 10 83 83 S 12 19 29.99 1016 10 16 0.02 0.51
1:21 am 01:21 Cloudy 55 12.8 51 10.6 87 87 S 10 17 30.00 1016 10 16 0.00 0.00
1:53 am 01:53 Cloudy with Heavy Rain 55 12.8 52 11.1 90 90 S 10 17 29.98 1015 3 4 0.11 2.79
2:04 am 02:04 Cloudy with Light Rain 55 12.8 53 11.7 93 93 S 10 17 29.99 1016 4 6 0.03 0.76
2:11 am 02:11 Cloudy with Nearby Thunderstorms 55 12.8 53 11.7 93 93 S 9 15 30.00 1016 9 14 0.03 0.76
2:35 am 02:35 Cloudy with Light Rain 55 12.8 53 11.7 93 93 S 13 20 29.99 1016 8 13 0.04 1.02
2:45 am 02:45 Cloudy with Light Rain 56 13.3 54 12.2 93 93 SSW 9 15 29.99 1016 8 13 0.05 1.27
2:53 am 02:53 Cloudy 56 13.3 54 12.2 93 93 S 7 11 29.98 1015 10 16 0.05 1.27
3:15 am 03:15 Cloudy 57 13.9 55 12.8 93 93 S 13 20 29.98 1015 10 16 0.00 0.00
3:53 am 03:53 Cloudy 59 15 55 12.8 87 87 S 12 19 29.97 1015 10 16 0.00 0.00
4:20 am 04:20 Cloudy with Nearby Thunderstorms 59 15 55 12.8 87 87 S 9 15 29.98 1015 10 16 0.03 0.76
4:28 am 04:28 Cloudy with Nearby Thunderstorms 59 15 55 12.8 87 87 S 15 24 29.98 1015 10 16 0.03 0.76
4:35 am 04:35 Cloudy with Light Rain 58 14.4 55 12.8 90 90 S 13 20 29.98 1015 10 16 0.03 0.76
4:53 am 04:53 Cloudy 58 14.4 55 12.8 90 90 S 13 20 29.97 1015 10 16 0.03 0.76
5:53 am 05:53 Cloudy with Nearby Thunderstorms 59 15 55 12.8 87 87 SSW 18 30 29.96 1015 10 16 0.00 0.00
6:08 am 06:08 Cloudy with Light Rain 58 14.4 55 12.8 90 90 S 15 24 29.97 1015 7 11 0.03 0.76
6:53 am 06:53 Cloudy 58 14.4 55 12.8 90 90 S 14 22 29.93 1014 10 16 0.05 1.27
7:32 am 07:32 Cloudy 58 14.4 55 12.8 90 90 S 12 19 29.93 1013 10 16 0.00 0.00
7:53 am 07:53 Cloudy 58 14.4 55 12.8 90 90 S 14 22 29.91 1013 10 16 0.00 0.00
8:07 am 08:07 Cloudy with Nearby Thunderstorms 58 14.4 56 13.3 93 93 S 10 17 29.92 1013 6 10 0.02 0.51
8:22 am 08:22 Cloudy with Light Rain 58 14.4 56 13.3 93 93 S 12 19 29.91 1013 9 14 0.02 0.51
8:41 am 08:41 Cloudy with Rain 58 14.4 56 13.3 93 93 S 12 19 29.91 1013 2 3 0.09 2.29
8:53 am 08:53 Cloudy with Light Rain 59 15 57 13.9 93 93 S 10 17 29.89 1012 9 14 0.09 2.29
9:53 am 09:53 Cloudy with Rain 60 15.6 58 14.4 93 93 SSE 12 19 29.85 1011 4 6 0.06 1.52
10:11 am 10:11 Cloudy with Rain 61 16.1 59 15 93 93 S 13 20 29.84 1011 4 6 0.03 0.76
10:23 am 10:23 Cloudy with Nearby Thunderstorms 61 16.1 59 15 93 93 S 13 20 29.83 1010 10 16 0.04 1.02
10:31 am 10:31 Cloudy with Nearby Thunderstorms 62 16.7 59 15 90 90 S 15 24 29.83 1010 7 11 0.05 1.27
10:44 am 10:44 Cloudy with Rain 62 16.7 59 15 90 90 S 14 22 29.82 1010 3 5 0.09 2.29
10:50 am 10:50 Cloudy with Nearby Thunderstorms 63 17 59 15 88 88 S 18 30 29.82 1010 4 6 0.10 2.54
10:53 am 10:53 Cloudy with Nearby Thunderstorms 62 16.7 59 15 90 90 S 16 26 29.82 1010 3 5 0.13 3.30
11:00 am 11:00 Cloudy with Nearby Thunderstorms 62 16.7 59 15 90 90 S 17 28 29.82 1010 3 4 0.03 0.76
11:05 am 11:05 Cloudy with Heavy Rain 62 16.7 59 15 90 90 S 18 30 29.81 1009 3 4 0.06 1.52
11:13 am 11:13 Cloudy with Rain 62 16.7 59 15 90 90 S 18 30 29.81 1009 3 5 0.07 1.78
11:20 am 11:20 Cloudy with Light Rain 62 16.7 59 15 90 90 S 21 33 29.82 1010 4 6 0.08 2.03
11:28 am 11:28 Cloudy with Rain 62 16.7 59 15 90 90 S 21 33 29.83 1010 4 6 0.10 2.54
11:53 am 11:53 Cloudy with Light Rain 63 17.2 59 15 87 87 SSW 25 41 29.84 1011 5 8 0.13 3.30
12:01 pm 12:01 Cloudy with Light Rain 63 17.2 59 15 87 87 SSW 26 43 29.84 1010 6 10 0.01 0.25
12:33 pm 12:33 Cloudy with Light Rain 63 17.2 59 15 87 87 SSW 18 30 29.84 1010 6 10 0.04 1.02
12:53 pm 12:53 Cloudy 63 17.2 59 15 87 87 SSW 22 35 29.83 1010 10 16 0.04 1.02
1:13 pm 13:13 Cloudy 63 17.2 59 15 87 87 SSW 22 35 29.84 1010 10 16 0.00 0.00
1:21 pm 13:21 Cloudy 63 17.2 58 14.4 84 84 SW 25 41 29.85 1011 10 16 0.00 0.00
1:53 pm 13:53 Cloudy with Light Rain 62 16.7 57 13.9 84 84 SSW 26 43 29.82 1010 10 16 0.01 0.25
2:53 pm 14:53 Cloudy 60 15.6 57 13.9 90 90 S 21 33 29.84 1010 10 16 0.03 0.76
3:53 pm 15:53 Mostly Cloudy 61 16.1 56 13.3 84 84 SW 20 31 29.89 1012 10 16 0.00 0.00
4:53 pm 16:53 Cloudy 61 16.1 56 13.3 84 84 SW 16 26 29.90 1012 10 16 0.00 0.00
5:24 pm 17:24 Cloudy 61 16.1 56 13.3 84 84 SW 18 30 29.89 1012 10 16 0.00 0.00
5:53 pm 17:53 Cloudy 61 16.1 56 13.3 84 84 SSW 16 26 29.92 1013 10 16 0.00 0.00
6:53 pm 18:53 Cloudy 61 16.1 56 13.3 84 84 SSW 17 28 29.95 1014 10 16 0.00 0.00
7:53 pm 19:53 Cloudy 60 15.6 57 13.9 90 90 SSW 12 19 29.97 1015 10 16 0.00 0.00
8:53 pm 20:53 Cloudy 60 15.6 57 13.9 90 90 SSW 14 22 29.99 1016 10 16 0.00 0.00
9:53 pm 21:53 Cloudy 59 15 57 13.9 93 93 SSW 9 15 30.00 1016 10 16 0.00 0.00
10:53 pm 22:53 Cloudy 60 15.6 57 13.9 90 90 SSW 10 17 30.01 1016 10 16 0.00 0.00
11:06 pm 23:06 Cloudy 60 15.6 57 13.9 90 90 SSW 10 17 30.02 1017 10 16 0.00 0.00
11:19 pm 23:19 Cloudy 60 15.6 57 13.9 90 90 SSW 10 17 30.02 1017 10 16 0.00 0.00
11:49 pm 23:49 Cloudy 55 13 54 12 94 94 WNW 13 20 30.04 1017 8 13 0.00 0.00
11:53 pm 23:53 Cloudy 55 12.8 53 11.7 93 93 WNW 10 17 30.03 1017 7 11 0.00 0.00

Powered by AerisWeather